Regional Weather Roundup
Issued by NWS

Home | Current Version | Previous Version | Graphics & Text | Print | Product List | Glossary On
Versions: 1 2 3 4 5 6 7 8 9 10 11 12 13 14 15 16 17 18 19 20 21 22 23 24 25 26 27 28 29 30 31 32 33 34 35 36 37 38 39 40 41 42 43 44 45 46 47 48 49 50
000
ASUS43 KOAX 300410
RWRNE

WEATHER ROUNDUP FOR NEBRASKA
NATIONAL WEATHER SERVICE OMAHA NE
1100 PM CDT FRI MAY 29 2015

NOTES: SATELLITE DATA IS BEING USED TO AUGMENT CLOUD COVER ABOVE
       12000 FEET.
       "FAIR" INDICATES FEW OR NO CLOUDS BELOW 12,000 FEET WITH NO
       SIGNIFICANT WEATHER AND/OR OBSTRUCTIONS TO VISIBILITY.

  * THESE STATIONS DO NOT REPORT WEATHER SUCH AS RAIN...SNOW OR FOG.

NEZ001>004-019>022-054>056-300500-
NEBRASKA PANHANDLE

CITY           SKY/WX    TMP DP  RH WIND       PRES   REMARKS
SCOTTSBLUFF    CLEAR     47  44  90 CALM      30.30R
ALLIANCE       CLOUDY    46  44  93 N6        30.29R
CHADRON        CLOUDY    48  46  93 SW3       30.30R
KIMBALL          N/A    N/A N/A N/A MISG        N/A
SIDNEY         CLOUDY    47  44  90 N10       30.31R
$$

NEZ057>060-069>072-079>082-300500-
SOUTHWEST NEBRASKA

CITY           SKY/WX    TMP DP  RH WIND       PRES   REMARKS
NORTH PLATTE   CLOUDY    49  44  83 N14       30.27R
IMPERIAL       CLOUDY    51  45  79 N13       30.27R
LEXINGTON      CLOUDY    51  47  84 N14G22    30.23R
MCCOOK         CLOUDY    53  46  77 N17       30.24R
OGALLALA       CLOUDY    49  45  86 N12       30.29R
$$

NEZ005>010-023>029-035>040-094-300500-
NORTH CENTRAL NEBRASKA

CITY           SKY/WX    TMP DP  RH WIND       PRES   REMARKS
VALENTINE      CLEAR     44  42  93 NW6       30.27R
AINSWORTH      PTCLDY    46  45  95 N7        30.25R
BROKEN BOW     CLOUDY    50  45  83 N18G30    30.23R
O`NEILL        MOCLDY    49  46  92 N13       30.21R
ORD            CLOUDY    50  46  86 N15       30.19R
THEDFORD       CLOUDY    47  45  90 N9        30.27R
$$

NEZ041-046>049-061>064-073>077-083>087-300500-
SOUTH CENTRAL NEBRASKA

CITY           SKY/WX    TMP DP  RH WIND       PRES   REMARKS
GRAND ISLAND   CLOUDY    52  46  80 N21       30.17R
AURORA         CLOUDY    52  48  89 N21G29    30.15R
HASTINGS       CLOUDY    52  46  80 N23G30    30.16R
HEBRON         CLOUDY    56  49  79 N9G18     30.12S
HOLDREGE       CLOUDY    51  47  85 N21G28    30.19R
KEARNEY *      CLOUDY    52  45  76 N21G28    30.19R
YORK           CLOUDY    52  48  87 N20G31    30.13R
$$

NEZ011>018-030>034-042>045-300500-
NORTHEAST NEBRASKA

CITY           SKY/WX    TMP DP  RH WIND       PRES   REMARKS
NORFOLK        CLOUDY    51  46  83 N22G30    30.13R
ALBION         CLOUDY    49  46  86 N18G26    30.17R
BLAIR          CLOUDY    55  50  83 N21G30    30.06R
COLUMBUS *     CLOUDY    52  45  76 N15       30.15R
FREMONT        CLOUDY    55  49  79 N14G22    30.10R
TEKAMAH        CLOUDY    55  50  83 N28       30.08R
WAYNE          CLOUDY    51  47  88 N17G25    30.13R
$$

NEZ050>053-065>068-078-088>093-300500-
SOUTHEAST NEBRASKA

CITY           SKY/WX    TMP DP  RH WIND       PRES   REMARKS
LINCOLN        CLOUDY    57  51  80 N21G29    30.09R
OMAHA EPPLEY   CLOUDY    57  53  86 N17G31    30.05R
BEATRICE       CLOUDY    58  54  85 N16G22    30.08R
FALLS CITY     LGT RAIN  65  62  90 N10       29.99R
NEBRASKA CITY  CLOUDY    60  59  97 N21       30.03R
PLATTSMOUTH    CLOUDY    58  55  88 N16G23    30.04R
$$

NEZ044-045-051>053-067-300500-
OMAHA AREA

CITY           SKY/WX    TMP DP  RH WIND       PRES   REMARKS
OMAHA EPPLEY   CLOUDY    57  53  86 N17G31    30.05R
BLAIR          CLOUDY    55  50  83 N21G30    30.06R
FREMONT        CLOUDY    55  49  79 N14G22    30.10R
MILLARD        CLOUDY    58  53  83 N7G18     30.06R
OFFUTT AFB     CLOUDY    58  54  86 N15G23    30.04R
PLATTSMOUTH    CLOUDY    58  55  88 N16G23    30.04R
WAHOO          CLOUDY    56  49  80 N23G31    30.08R
$$


USA.gov is the U.S. government's official web portal to all federal, state and local government web resources and services.